[[{"header":{"parameterUnit":"m.s-1","parameterCategory":2,"la1":30.2991,"la2":30.254,"lo1":-89.0895,"lo2":-89.0444,"dy":0.0017,"dx":0.0017,"nx":28,"ny":28,"refTime":"2023-10-27T21:00:00:Z","depth":"0","parameterNumber":2,"parameterNumberName":"U-component_of_CURRENTS"},"data":[0,0,0,0,0,0,0,0,0,0,0,0,0,0,0,0,0,0,0,0,0,0,0,0,0,0,0,0,0,0,0,0,0,0,0,0,0,0,0,0,0,0,0,0,0,0,0,0,0,0,0,0,0,0,0,0,0,0,-0.2666,-0.2666,0,-0.2645,-0.2644,-0.2644,-0.2582,-0.2581,-0.258,-0.2579,-0.2489,-0.2487,-0.2486,0,0,0,0,0,0,0,0,0,0,0,0,0,-0.2606,-0.2607,-0.2666,-0.2666,-0.2666,-0.2645,-0.2644,-0.2644,-0.2582,-0.2581,-0.258,-0.2579,-0.2489,-0.2488,-0.2486,0,0,0,0,0,0,0,0,0,0,0,0,0,-0.2608,-0.2608,-0.2666,-0.2637,-0.2635,-0.2645,-0.2644,-0.2643,-0.2582,-0.2581,-0.258,-0.2578,-0.249,-0.2488,-0.2485,-0.2495,0,0,-0.2478,-0.2477,0,0,0,0,0,0,0,0,-0.2608,-0.261,-0.2641,-0.2639,-0.2637,-0.262,-0.2591,-0.2592,-0.2582,-0.2596,-0.2579,-0.2578,-0.2531,-0.2525,-0.2517,-0.2491,-0.2487,-0.2478,-0.2476,-0.2475,-0.2474,0,0,0,0,0,0,0,-0.2608,-0.261,-0.2652,-0.2642,-0.2639,-0.261,-0.2609,-0.259,-0.2565,-0.2595,-0.2592,-0.2599,-0.2528,-0.2519,-0.2514,-0.2485,-0.2478,-0.2475,-0.2474,-0.2473,-0.255,-0.2553,0,0,0,0,0,0,-0.2627,-0.261,-0.2652,-0.2652,-0.2626,-0.2613,-0.2611,-0.2622,-0.2566,-0.2559,-0.26,-0.2596,-0.2524,-0.2517,-0.2511,-0.2578,-0.2475,-0.2473,-0.2471,-0.2547,-0.2551,-0.2555,0,0,0,0,0,0,-0.2625,-0.2631,-0.2653,-0.2634,-0.2636,-0.2616,-0.2628,-0.2622,-0.2612,-0.2573,-0.2562,-0.2596,-0.2523,-0.2514,-0.2522,-0.2571,-0.2472,-0.2469,-0.2542,-0.2548,-0.2553,-0.2674,0,0,0,0,0,0,-0.2624,-0.263,-0.2639,-0.2636,-0.2638,-0.2688,-0.263,-0.2623,-0.2621,-0.2616,-0.2566,-0.2556,-0.2521,-0.2526,-0.2519,-0.2566,-0.2467,-0.2538,-0.2545,-0.2551,-0.2666,-0.2683,-0.2698,0,0,0,0,0,-0.2622,-0.2646,-0.264,-0.2645,-0.2653,-0.2691,-0.269,-0.2666,-0.2623,-0.2644,-0.2611,-0.2558,-0.2564,-0.2527,-0.2518,-0.2565,-0.2535,-0.2543,-0.2551,-0.2658,-0.268,-0.2697,0,0,0,0,0,0,-0.2621,-0.2643,-0.2636,-0.2664,-0.269,-0.2683,-0.2689,-0.2673,-0.2661,-0.264,-0.2589,-0.258,-0.2617,-0.2579,-0.2539,-0.2614,-0.2546,-0.2553,-0.2632,-0.2651,-0.2667,-0.2632,-0.2465,0,0,0,0,0,-0.263,-0.2646,-0.2676,-0.2693,-0.2709,-0.2697,-0.2703,-0.2695,-0.2688,-0.2678,-0.2654,-0.2634,-0.2646,-0.2635,-0.2641,-0.266,-0.2574,-0.2693,-0.2709,-0.2723,-0.2694,-0.264,-0.2646,-0.2581,-0.2581,-0.2581,0,0,-0.2628,-0.2644,-0.265,-0.2694,-0.2695,-0.2744,-0.2696,-0.2716,-0.2747,-0.2671,-0.2695,-0.2691,-0.267,-0.2713,-0.2724,-0.2678,-0.2698,-0.2733,-0.2744,-0.2706,-0.2649,-0.2654,-0.2659,-0.2586,-0.2585,-0.2584,0,0,-0.2646,-0.2655,-0.2683,-0.2723,-0.2756,-0.2765,-0.2779,-0.2795,-0.2792,-0.2831,-0.2795,-0.2814,-0.2821,-0.2819,-0.2816,-0.292,-0.2797,-0.2935,-0.2964,-0.2916,-0.2918,-0.292,-0.2808,-0.2799,-0.2927,-0.2928,-0.2928,0,-0.2649,-0.2675,-0.2699,-0.2754,-0.2773,-0.2783,-0.2823,-0.285,-0.2868,-0.2853,-0.286,-0.2871,-0.2874,-0.2891,-0.2947,-0.2952,-0.2871,-0.2889,-0.293,-0.293,-0.2929,-0.2815,-0.2802,-0.2934,-0.2934,-0.2933,-0.2932,0,-0.2691,-0.2724,-0.2746,-0.2812,-0.2857,-0.2884,-0.2941,-0.2963,-0.2961,-0.2971,-0.2996,-0.3009,-0.2993,-0.3038,-0.3025,-0.3038,-0.2964,-0.2966,-0.2867,-0.2942,-0.2818,-0.2803,-0.2944,-0.2942,-0.294,-0.2938,0,0,-0.2628,-0.2749,-0.2748,-0.2758,-0.2873,-0.2881,-0.297,-0.3001,-0.2971,-0.3055,-0.3014,-0.3118,-0.3091,-0.3087,-0.3082,-0.3061,-0.3022,-0.3013,-0.3007,-0.2874,-0.2847,-0.2785,-0.2761,-0.3019,-0.3017,-0.3016,-0.2755,0,-0.2628,-0.2693,-0.2782,-0.2826,-0.284,-0.2914,-0.2967,-0.301,-0.3026,-0.3007,-0.3049,-0.3029,-0.3122,-0.3079,-0.3103,-0.3031,-0.2989,-0.3087,-0.2815,-0.2806,-0.272,-0.2746,-0.2649,-0.2408,-0.274,-0.2737,-0.2735,0,-0.2598,-0.2637,-0.2685,-0.274,-0.2754,-0.2806,-0.28,-0.2856,-0.2892,-0.2898,-0.2934,-0.2942,-0.2962,-0.3003,-0.2948,-0.2997,-0.2931,-0.2884,-0.2872,-0.2751,-0.2717,-0.2393,-0.2367,-0.2369,-0.2711,-0.2713,-0.2714,0,-0.2417,-0.2533,-0.2536,-0.2574,-0.2687,-0.2693,-0.2732,-0.2787,-0.2784,-0.2789,-0.276,-0.2814,-0.2774,-0.2772,-0.2775,-0.2821,-0.2656,-0.2697,-0.2568,-0.2559,-0.2389,-0.2369,-0.2305,-0.2613,-0.2613,-0.2614,-0.2615,0,-0.2325,-0.2316,-0.2436,-0.2433,-0.2404,-0.253,-0.2489,-0.2539,-0.2573,-0.2555,-0.2663,-0.2629,-0.2712,-0.2672,-0.2687,-0.2583,-0.2591,-0.2543,-0.2494,-0.2432,-0.242,-0.2342,-0.2375,-0.2604,-0.2606,-0.2608,-0.261,0,-0.213,-0.2219,-0.2214,-0.2306,-0.2321,-0.2285,-0.2356,-0.2326,-0.2381,-0.2351,-0.2346,-0.2429,-0.2388,-0.2443,-0.2375,-0.2415,-0.2289,-0.229,-0.2192,-0.214,-0.2053,-0.2096,-0.1907,-0.1859,-0.2081,-0.2078,-0.2075,0,-0.2038,-0.2017,-0.2083,-0.2071,-0.2115,-0.2102,-0.2103,-0.2197,-0.2201,-0.2236,-0.2209,-0.2169,-0.2169,-0.2068,-0.2084,-0.2025,-0.2095,-0.1903,-0.2014,-0.201,-0.202,-0.2062,-0.2041,-0.1811,-0.1807,-0.1803,-0.18,0,-0.1861,-0.1887,-0.1899,-0.1874,-0.1868,-0.187,-0.1892,-0.1871,-0.1985,-0.197,-0.1961,-0.1945,-0.1895,-0.1835,-0.1784,-0.1762,-0.1868,-0.1824,-0.1844,-0.1818,-0.1828,-0.177,-0.1993,-0.1768,-0.1771,-0.1773,-0.1775,-0.1776,-0.1714,-0.1681,-0.1694,-0.1665,-0.166,-0.1638,-0.1589,-0.1648,-0.1623,-0.1628,-0.171,-0.167,-0.1681,-0.1605,-0.1582,-0.1508,-0.1581,-0.1507,-0.1549,-0.1586,-0.1585,-0.1723,-0.1458,-0.146,-0.1461,-0.1462,-0.1463,0,-0.1523,-0.1519,-0.1486,-0.1454,-0.14,-0.1457,-0.145,-0.14,-0.1347,-0.1412,-0.1407,-0.1405,-0.1346,-0.1376,-0.1331,-0.1284,-0.1286,-0.1267,-0.1317,-0.1304,-0.1412,-0.1454,-0.1148,-0.1148,-0.1148,-0.1148,-0.1148,-0.1148,-0.1416,-0.1339,-0.1343,-0.1209,-0.1191,-0.109,-0.1063,-0.1019,-0.1036,-0.1001,-0.1037,-0.1089,-0.1161,-0.1294,-0.125,-0.1192,-0.1205,-0.1134,-0.1192,-0.1311,-0.1339,-0.1365,-0.1414,-0.1105,-0.1105,-0.1034,-0.1034,-0.1034]},{"header":{"parameterUnit":"m.s-1","parameterCategory":2,"la1":30.2991,"la2":30.254,"lo1":-89.0895,"lo2":-89.0444,"dy":0.0017,"dx":0.0017,"nx":28,"ny":28,"refTime":"2023-10-27T21:00:00:Z","depth":"0","parameterNumber":3,"parameterNumberName":"V-component_of_CURRENTS"},"data":[0,0,0,0,0,0,0,0,0,0,0,0,0,0,0,0,0,0,0,0,0,0,0,0,0,0,0,0,0,0,0,0,0,0,0,0,0,0,0,0,0,0,0,0,0,0,0,0,0,0,0,0,0,0,0,0,0,0,-0.0127,-0.0127,0,-0.0028,-0.0027,-0.0026,0.002,0.002,0.002,0.002,0.0139,0.0143,0.0146,0,0,0,0,0,0,0,0,0,0,0,0,0,-0.0206,-0.0205,-0.0128,-0.0126,-0.0125,-0.0029,-0.0027,-0.0026,0.002,0.002,0.002,0.0019,0.0138,0.0142,0.0146,0,0,0,0,0,0,0,0,0,0,0,0,0,-0.0145,-0.0205,-0.0128,-0.0092,-0.0088,-0.0029,-0.0027,-0.0025,0.002,0.002,0.002,0.0019,0.0137,0.0142,0.0147,0.0185,0,0,0.0162,0.0165,0,0,0,0,0,0,0,0,-0.0148,-0.0142,-0.0098,-0.0094,-0.009,-0.0018,-0.0011,0.0045,0.002,-0.0019,0.002,0.0019,0.0088,0.0097,0.0118,0.019,0.0195,0.0163,0.0166,0.0168,0.017,0,0,0,0,0,0,0,-0.0153,-0.0145,-0.0087,-0.0097,-0.0092,-0.0056,-0.0049,0.0001,0.0036,-0.0016,-0.0013,-0.0004,0.0091,0.0113,0.0121,0.0197,0.0163,0.0167,0.017,0.0172,0.033,0.0331,0,0,0,0,0,0,-0.0171,-0.015,-0.009,-0.0084,-0.0122,-0.0055,-0.0046,-0.004,0.0036,0.0046,-0.0004,-0.0002,0.0105,0.0115,0.0126,0.017,0.0168,0.0173,0.0176,0.0329,0.033,0.0331,0,0,0,0,0,0,-0.0173,-0.0167,-0.0094,-0.0116,-0.0104,-0.0054,-0.0046,-0.0037,-0.002,0.0044,0.0056,0.0004,0.0105,0.0119,0.0174,0.0175,0.0175,0.018,0.0327,0.0329,0.0331,0.0263,0,0,0,0,0,0,-0.0176,-0.0168,-0.0173,-0.0117,-0.0104,-0.0064,-0.0046,-0.0035,-0.0014,-0.0011,0.0055,0.0066,0.0106,0.0167,0.0179,0.0182,0.0184,0.0326,0.0328,0.033,0.0263,0.0262,0.026,0,0,0,0,0,-0.0179,-0.0187,-0.0174,-0.0167,-0.0111,-0.0064,-0.0054,-0.0018,-0.0014,-0.0004,0.0045,0.0063,0.0189,0.0172,0.0187,0.0191,0.0325,0.0327,0.033,0.0264,0.0262,0.026,0,0,0,0,0,0,-0.0225,-0.0181,-0.0167,-0.0161,-0.0119,-0.0058,-0.005,-0.0024,0.0022,0.0023,0.0079,0.0095,0.0148,0.0184,0.0163,0.0246,0.026,0.0266,0.0205,0.0204,0.0202,0.0177,0.0188,0,0,0,0,0,-0.0238,-0.0234,-0.0179,-0.0176,-0.0158,-0.0106,-0.0085,-0.0057,-0.0008,0.0011,0.0061,0.0117,0.0173,0.0196,0.0255,0.0295,0.0322,0.0311,0.0309,0.0307,0.03,0.0334,0.0333,0.034,0.034,0.034,0,0,-0.0255,-0.0232,-0.0229,-0.0186,-0.0153,-0.0129,-0.0094,-0.0065,-0.0042,0.0018,0.0062,0.0118,0.0186,0.0237,0.0262,0.0262,0.0324,0.031,0.0308,0.0301,0.0336,0.0335,0.0334,0.0341,0.0341,0.0341,0,0,-0.0291,-0.0267,-0.0275,-0.024,-0.0196,-0.0154,-0.015,-0.0085,-0.0056,-0.0002,0.0049,0.0101,0.0186,0.0231,0.0264,0.029,0.032,0.0313,0.0274,0.0307,0.0306,0.0305,0.0344,0.0347,0.0303,0.0303,0.0303,0,-0.0317,-0.0316,-0.0268,-0.0261,-0.0242,-0.0171,-0.0167,-0.0118,-0.0042,-0.002,0.0003,0.0127,0.0181,0.0235,0.0247,0.0283,0.0309,0.0268,0.0301,0.0301,0.0301,0.0341,0.0346,0.03,0.03,0.03,0.0301,0,-0.0352,-0.0347,-0.0347,-0.0316,-0.0284,-0.0267,-0.0195,-0.0157,-0.0112,-0.0063,0.0007,0.009,0.0155,0.0186,0.0225,0.026,0.0281,0.0296,0.0293,0.0295,0.0339,0.0345,0.0295,0.0296,0.0297,0.0298,0,0,-0.0412,-0.0383,-0.038,-0.0376,-0.0313,-0.0288,-0.0249,-0.0193,-0.0171,-0.0088,-0.0057,0.0043,0.0084,0.0126,0.0185,0.0216,0.0247,0.0249,0.0252,0.0265,0.0323,0.0371,0.0382,0.0261,0.0261,0.0262,0.0354,0,-0.0454,-0.0471,-0.0434,-0.0429,-0.0425,-0.0352,-0.0321,-0.0258,-0.0193,-0.0137,-0.0051,0.001,0.0064,0.0093,0.0134,0.0231,0.0258,0.0221,0.0339,0.0342,0.0366,0.0389,0.0417,0.0504,0.036,0.0361,0.0361,0,-0.0491,-0.0499,-0.0519,-0.0489,-0.048,-0.0462,-0.0403,-0.0362,-0.0267,-0.0219,-0.015,-0.0072,0.001,0.0046,0.0183,0.0156,0.0226,0.0293,0.0298,0.0367,0.0401,0.0481,0.052,0.0631,0.037,0.037,0.0369,0,-0.0553,-0.0547,-0.0572,-0.056,-0.0516,-0.051,-0.0479,-0.0397,-0.0358,-0.0272,-0.0236,-0.0129,-0.0059,0.0034,0.0188,0.0179,0.0338,0.0342,0.0448,0.0452,0.0513,0.0522,0.0653,0.0411,0.0411,0.041,0.041,0,-0.0601,-0.0612,-0.0606,-0.0614,-0.0623,-0.0574,-0.0559,-0.0507,-0.0435,-0.038,-0.0287,-0.0214,-0.006,0.0062,0.0172,0.0345,0.0326,0.0448,0.048,0.0494,0.0499,0.0629,0.0663,0.0414,0.0413,0.0412,0.0412,0,-0.0641,-0.0647,-0.0666,-0.0656,-0.0651,-0.0653,-0.0608,-0.0588,-0.0521,-0.0447,-0.0422,-0.0267,-0.0099,0.0059,0.0242,0.034,0.0558,0.0538,0.0551,0.0583,0.0774,0.0803,0.0952,0.1024,0.0664,0.0665,0.0667,0,-0.066,-0.0682,-0.0696,-0.0707,-0.0703,-0.07,-0.0689,-0.0634,-0.0598,-0.0461,-0.0422,-0.0255,-0.0096,0.0189,0.0383,0.0583,0.0649,0.0706,0.069,0.0799,0.0854,0.0864,0.0913,0.075,0.0752,0.0754,0.0755,0,-0.0685,-0.0696,-0.071,-0.0737,-0.0747,-0.0749,-0.0728,-0.0713,-0.0621,-0.0543,-0.0388,-0.0257,0.0034,0.0305,0.0552,0.066,0.079,0.0746,0.0856,0.0934,0.0955,0.1034,0.0678,0.077,0.0768,0.0767,0.0767,0.0766,-0.069,-0.0711,-0.0731,-0.0747,-0.0765,-0.077,-0.0755,-0.0716,-0.0645,-0.049,-0.0359,-0.0104,0.0241,0.0613,0.0739,0.099,0.0938,0.1047,0.1074,0.1075,0.1142,0.0823,0.0949,0.0949,0.0948,0.0948,0.0948,0,-0.0681,-0.0706,-0.0731,-0.0755,-0.0766,-0.0771,-0.0749,-0.0703,-0.0606,-0.0438,-0.0258,0.0219,0.0551,0.0849,0.1183,0.131,0.133,0.1359,0.1379,0.1416,0.1142,0.1144,0.1321,0.1321,0.1321,0.132,0.132,0.132,-0.068,-0.0698,-0.0713,-0.073,-0.0746,-0.0719,-0.0698,-0.0627,-0.0494,-0.0203,0.0095,0.0351,0.0779,0.1275,0.1578,0.1595,0.1709,0.168,0.175,0.1558,0.153,0.1504,0.1517,0.1768,0.1769,0.2018,0.202,0.2022]}],[{"header":{"parameterUnit":"m.s-1","parameterCategory":2,"la1":30.2991,"la2":30.254,"lo1":-89.0895,"lo2":-89.0444,"dy":0.0017,"dx":0.0017,"nx":28,"ny":28,"refTime":"2023-10-27T21:00:00:Z","depth":"2","parameterNumber":2,"parameterNumberName":"U-component_of_CURRENTS"},"data":[0,0,0,0,0,0,0,0,0,0,0,0,0,0,0,0,0,0,0,0,0,0,0,0,0,0,0,0,0,0,0,0,0,0,0,0,0,0,0,0,0,0,0,0,0,0,0,0,0,0,0,0,0,0,0,0,0,0,-0.2145,-0.2145,0,-0.2129,-0.2128,-0.2128,-0.2093,-0.2092,-0.2092,-0.2092,-0.212,-0.212,-0.2121,0,0,0,0,0,0,0,0,0,0,0,0,0,-0.2122,-0.2123,-0.2145,-0.2145,-0.2145,-0.2129,-0.2128,-0.2127,-0.2093,-0.2092,-0.2092,-0.2092,-0.2119,-0.212,-0.2122,0,0,0,0,0,0,0,0,0,0,0,0,0,-0.2117,-0.2123,-0.2145,-0.2129,-0.2128,-0.2129,-0.2128,-0.2127,-0.2093,-0.2092,-0.2092,-0.2091,-0.2119,-0.212,-0.2122,-0.214,0,0,-0.2126,-0.2127,0,0,0,0,0,0,0,0,-0.2118,-0.2118,-0.2131,-0.213,-0.2129,-0.2116,-0.2131,-0.2135,-0.2093,-0.2101,-0.2092,-0.2091,-0.2126,-0.2127,-0.2117,-0.2141,-0.2142,-0.2127,-0.2127,-0.2128,-0.2129,0,0,0,0,0,0,0,-0.2118,-0.2118,-0.2134,-0.2132,-0.213,-0.2116,-0.2114,-0.2131,-0.2113,-0.21,-0.2099,-0.2105,-0.2125,-0.2116,-0.2118,-0.2143,-0.2126,-0.2128,-0.2129,-0.2129,-0.2168,-0.2168,0,0,0,0,0,0,-0.2131,-0.2119,-0.2134,-0.2134,-0.2127,-0.2117,-0.2115,-0.2117,-0.2112,-0.2112,-0.2105,-0.2103,-0.2114,-0.2116,-0.2119,-0.2175,-0.2128,-0.2129,-0.213,-0.2168,-0.2168,-0.2168,0,0,0,0,0,0,-0.2131,-0.2133,-0.2135,-0.213,-0.2129,-0.2118,-0.2121,-0.2117,-0.2117,-0.2116,-0.2116,-0.211,-0.2113,-0.2117,-0.2113,-0.2175,-0.213,-0.2132,-0.2168,-0.2168,-0.2168,-0.2265,0,0,0,0,0,0,-0.213,-0.2132,-0.2133,-0.213,-0.213,-0.2148,-0.2121,-0.2117,-0.2123,-0.212,-0.2121,-0.2122,-0.2113,-0.2111,-0.2115,-0.2176,-0.2133,-0.2168,-0.2168,-0.2168,-0.2262,-0.2268,-0.2274,0,0,0,0,0,-0.2129,-0.2137,-0.2133,-0.2135,-0.2133,-0.2149,-0.2148,-0.2135,-0.2124,-0.2131,-0.2106,-0.2122,-0.2116,-0.2111,-0.2116,-0.218,-0.2167,-0.2168,-0.2168,-0.2259,-0.2267,-0.2274,0,0,0,0,0,0,-0.2122,-0.2135,-0.213,-0.2139,-0.215,-0.2145,-0.2148,-0.2145,-0.2131,-0.2122,-0.2116,-0.2115,-0.2139,-0.2129,-0.2124,-0.2184,-0.2149,-0.215,-0.2217,-0.2224,-0.2231,-0.2217,-0.2134,0,0,0,0,0,-0.2125,-0.2132,-0.2145,-0.215,-0.2159,-0.2156,-0.2159,-0.2154,-0.2146,-0.2139,-0.2143,-0.2137,-0.2143,-0.2156,-0.2153,-0.2188,-0.2141,-0.2229,-0.2236,-0.2242,-0.2229,-0.22,-0.2203,-0.2169,-0.2169,-0.2169,0,0,-0.2125,-0.213,-0.2135,-0.215,-0.2152,-0.2177,-0.2156,-0.2166,-0.2183,-0.2147,-0.2166,-0.216,-0.215,-0.2179,-0.2193,-0.2184,-0.2223,-0.2242,-0.2248,-0.2231,-0.2201,-0.2204,-0.2207,-0.2169,-0.2169,-0.2169,0,0,-0.2129,-0.2135,-0.2145,-0.2162,-0.2175,-0.2187,-0.2198,-0.2208,-0.2206,-0.2226,-0.2199,-0.2206,-0.2236,-0.223,-0.2234,-0.2269,-0.225,-0.2295,-0.2335,-0.2309,-0.2312,-0.2314,-0.2249,-0.2245,-0.2309,-0.2309,-0.231,0,-0.2125,-0.2133,-0.2151,-0.2168,-0.2178,-0.22,-0.2215,-0.2235,-0.224,-0.2238,-0.2243,-0.2258,-0.2258,-0.228,-0.2292,-0.229,-0.2254,-0.2318,-0.232,-0.232,-0.2321,-0.2254,-0.2248,-0.2314,-0.2314,-0.2313,-0.2313,0,-0.2134,-0.2148,-0.2158,-0.219,-0.2213,-0.2226,-0.2264,-0.2285,-0.2303,-0.2317,-0.2341,-0.2332,-0.2337,-0.2363,-0.2345,-0.2364,-0.2329,-0.2327,-0.2307,-0.2331,-0.2258,-0.225,-0.2321,-0.2319,-0.2318,-0.2317,0,0,-0.2083,-0.2149,-0.2148,-0.2158,-0.2215,-0.2227,-0.2279,-0.2311,-0.2319,-0.2372,-0.2372,-0.2418,-0.2418,-0.2416,-0.2413,-0.2404,-0.2381,-0.2378,-0.2375,-0.2324,-0.2296,-0.223,-0.2214,-0.2393,-0.2393,-0.2392,-0.2241,0,-0.2069,-0.2098,-0.2139,-0.2172,-0.2188,-0.2235,-0.2273,-0.2313,-0.2345,-0.2359,-0.2391,-0.2393,-0.2444,-0.2431,-0.2449,-0.238,-0.2365,-0.2419,-0.227,-0.2264,-0.2213,-0.2205,-0.2063,-0.1914,-0.2233,-0.2231,-0.223,0,-0.2037,-0.2062,-0.2087,-0.2137,-0.2146,-0.218,-0.2213,-0.225,-0.2301,-0.2318,-0.2369,-0.2383,-0.2396,-0.2414,-0.2375,-0.2412,-0.2361,-0.2319,-0.2313,-0.2208,-0.2183,-0.1942,-0.1886,-0.2216,-0.2217,-0.2218,-0.2219,0,-0.1952,-0.2011,-0.2023,-0.2043,-0.2121,-0.2129,-0.2167,-0.2226,-0.2231,-0.2275,-0.2272,-0.2329,-0.2306,-0.2306,-0.2279,-0.2313,-0.2196,-0.2223,-0.2115,-0.2108,-0.193,-0.1909,-0.217,-0.217,-0.2171,-0.2171,-0.2172,0,-0.1896,-0.1898,-0.1982,-0.1987,-0.1984,-0.2063,-0.206,-0.2106,-0.2146,-0.2147,-0.2236,-0.2221,-0.2277,-0.2245,-0.2239,-0.215,-0.2172,-0.2098,-0.2067,-0.1958,-0.1942,-0.2164,-0.2166,-0.2165,-0.2167,-0.2168,-0.2169,0,-0.1787,-0.185,-0.1857,-0.1928,-0.1942,-0.1934,-0.1981,-0.1981,-0.204,-0.2033,-0.2038,-0.2099,-0.2063,-0.2096,-0.2037,-0.2052,-0.1988,-0.1944,-0.18,-0.1756,-0.1921,-0.1929,-0.1798,-0.1794,-0.1791,-0.1789,-0.1787,0,-0.1729,-0.1726,-0.1782,-0.1779,-0.1804,-0.1816,-0.1821,-0.1902,-0.1914,-0.1954,-0.1936,-0.1913,-0.1895,-0.1808,-0.1793,-0.174,-0.1843,-0.1588,-0.1639,-0.1901,-0.1883,-0.1896,-0.1908,-0.1426,-0.1421,-0.1417,-0.1414,0,-0.1602,-0.1626,-0.1637,-0.1632,-0.1636,-0.1642,-0.1669,-0.1663,-0.1757,-0.1752,-0.1739,-0.1717,-0.1665,-0.1558,-0.1508,-0.1476,-0.1602,-0.1504,-0.1783,-0.1566,-0.1545,-0.153,-0.1554,-0.1378,-0.1381,-0.1384,-0.1386,-0.1387,-0.1482,-0.1456,-0.1472,-0.1457,-0.1466,-0.1455,-0.1415,-0.1467,-0.1447,-0.1441,-0.151,-0.1435,-0.146,-0.1294,-0.1245,-0.1213,-0.1329,-0.1305,-0.1319,-0.1337,-0.1345,-0.1323,-0.1112,-0.1114,-0.1116,-0.1117,-0.1119,0,-0.1316,-0.1313,-0.1294,-0.1275,-0.1236,-0.1295,-0.1297,-0.125,-0.1194,-0.1223,-0.1201,-0.1076,-0.1005,-0.1032,-0.0926,-0.0934,-0.0949,-0.0909,-0.0932,-0.0966,-0.0997,-0.0991,-0.0661,-0.066,-0.0659,-0.0658,0,0,-0.1223,-0.1156,-0.1159,-0.1048,-0.1041,-0.095,-0.0925,-0.0891,-0.0886,-0.0816,-0.0791,-0.0883,-0.0951,-0.0785,-0.0772,-0.0692,-0.0817,-0.0655,-0.1014,-0.1069,-0.1099,-0.121,-0.1237,0,0,0,0,0]},{"header":{"parameterUnit":"m.s-1","parameterCategory":2,"la1":30.2991,"la2":30.254,"lo1":-89.0895,"lo2":-89.0444,"dy":0.0017,"dx":0.0017,"nx":28,"ny":28,"refTime":"2023-10-27T21:00:00:Z","depth":"2","parameterNumber":3,"parameterNumberName":"V-component_of_CURRENTS"},"data":[0,0,0,0,0,0,0,0,0,0,0,0,0,0,0,0,0,0,0,0,0,0,0,0,0,0,0,0,0,0,0,0,0,0,0,0,0,0,0,0,0,0,0,0,0,0,0,0,0,0,0,0,0,0,0,0,0,0,-0.0166,-0.0165,0,-0.0099,-0.0098,-0.0097,-0.0071,-0.0071,-0.0071,-0.0072,0.0036,0.0039,0.0042,0,0,0,0,0,0,0,0,0,0,0,0,0,-0.0218,-0.0218,-0.0166,-0.0165,-0.0164,-0.0099,-0.0098,-0.0097,-0.0071,-0.0071,-0.0071,-0.0072,0.0035,0.0038,0.0042,0,0,0,0,0,0,0,0,0,0,0,0,0,-0.0178,-0.0218,-0.0166,-0.0144,-0.0141,-0.0099,-0.0098,-0.0097,-0.0071,-0.0071,-0.0072,-0.0072,0.0034,0.0038,0.0042,0.0076,0,0,0.0056,0.0058,0,0,0,0,0,0,0,0,-0.018,-0.0176,-0.0148,-0.0145,-0.0142,-0.0093,-0.0077,-0.0037,-0.0071,-0.0098,-0.0072,-0.0072,-0.0003,0.0004,0.0017,0.0081,0.0086,0.0057,0.006,0.0062,0.0063,0,0,0,0,0,0,0,-0.0183,-0.0178,-0.0139,-0.0147,-0.0143,-0.0118,-0.0113,-0.0069,-0.0049,-0.0095,-0.0093,-0.0086,-0.0002,0.0012,0.002,0.0088,0.0057,0.0061,0.0064,0.0065,0.0165,0.0165,0,0,0,0,0,0,-0.0194,-0.0181,-0.0141,-0.0137,-0.0162,-0.0117,-0.0112,-0.0109,-0.005,-0.0042,-0.0085,-0.0085,0.0005,0.0014,0.0024,0.0058,0.0062,0.0066,0.0068,0.0165,0.0165,0.0165,0,0,0,0,0,0,-0.0195,-0.0191,-0.0144,-0.0157,-0.015,-0.0116,-0.0113,-0.0107,-0.0096,-0.0043,-0.0034,-0.008,0.0005,0.0017,0.005,0.0063,0.0068,0.0072,0.0165,0.0165,0.0165,0.0134,0,0,0,0,0,0,-0.0197,-0.0192,-0.0196,-0.0158,-0.0149,-0.0124,-0.0113,-0.0106,-0.009,-0.0089,-0.0036,-0.0026,0.0006,0.0043,0.0055,0.0069,0.0076,0.0165,0.0165,0.0165,0.0135,0.0133,0.0131,0,0,0,0,0,-0.0199,-0.0206,-0.0197,-0.0192,-0.0155,-0.0124,-0.0117,-0.0094,-0.009,-0.0085,-0.0057,-0.0028,0.0051,0.0047,0.0061,0.0077,0.0166,0.0165,0.0165,0.0136,0.0133,0.0131,0,0,0,0,0,0,-0.0231,-0.0203,-0.0192,-0.019,-0.0161,-0.012,-0.0116,-0.0097,-0.007,-0.0072,-0.0026,-0.0014,0.0018,0.0049,0.0043,0.0103,0.0113,0.0115,0.0086,0.0084,0.0082,0.007,0.0079,0,0,0,0,0,-0.0239,-0.0239,-0.0202,-0.0201,-0.0189,-0.0153,-0.0139,-0.012,-0.009,-0.0079,-0.004,-0.0003,0.003,0.0055,0.0089,0.0127,0.0155,0.0145,0.0142,0.014,0.0139,0.0184,0.0186,0.0164,0.0164,0.0164,0,0,-0.0251,-0.0237,-0.0236,-0.0208,-0.0186,-0.0174,-0.0146,-0.0127,-0.0112,-0.007,-0.0042,-0.0009,0.0036,0.0071,0.0089,0.0099,0.016,0.014,0.0138,0.0138,0.0184,0.0186,0.0188,0.0164,0.0164,0.0164,0,0,-0.0278,-0.0263,-0.0272,-0.0249,-0.0219,-0.0193,-0.0189,-0.0146,-0.0124,-0.0093,-0.0062,-0.0026,0.003,0.0067,0.0091,0.01,0.0142,0.0111,0.0103,0.0146,0.0149,0.0151,0.0185,0.019,0.0117,0.0117,0.0117,0,-0.0294,-0.0298,-0.0268,-0.0267,-0.0253,-0.0206,-0.0205,-0.0172,-0.0122,-0.01,-0.0092,-0.0009,0.0029,0.0079,0.0077,0.0097,0.0122,0.011,0.0144,0.0147,0.015,0.0184,0.0191,0.0116,0.0116,0.0116,0.0116,0,-0.0324,-0.0323,-0.0326,-0.0311,-0.029,-0.028,-0.0232,-0.0204,-0.0173,-0.0135,-0.0082,-0.0028,0.0021,0.0043,0.0062,0.0107,0.0117,0.0131,0.015,0.015,0.0186,0.0193,0.0113,0.0114,0.0114,0.0115,0,0,-0.0364,-0.0351,-0.0351,-0.0352,-0.0312,-0.0299,-0.0269,-0.0224,-0.0203,-0.0144,-0.011,-0.0045,-0.001,0.0019,0.0062,0.0104,0.0145,0.0122,0.0125,0.0154,0.0234,0.0257,0.0268,0.0164,0.0166,0.0166,0.025,0,-0.0395,-0.0416,-0.039,-0.0395,-0.04,-0.0343,-0.0319,-0.027,-0.022,-0.0173,-0.0098,-0.0056,-0.0018,0.0003,0.0054,0.0123,0.0163,0.0121,0.0231,0.0234,0.0254,0.0277,0.0243,0.0316,0.0257,0.0259,0.0259,0,-0.043,-0.044,-0.0461,-0.0441,-0.0435,-0.0426,-0.0378,-0.0346,-0.0263,-0.0224,-0.0157,-0.01,-0.002,0.0001,0.013,0.01,0.0159,0.0212,0.0217,0.0254,0.0271,0.0308,0.0333,0.0272,0.0271,0.027,0.0269,0,-0.0485,-0.0483,-0.0506,-0.05,-0.047,-0.0461,-0.0438,-0.0369,-0.0336,-0.0257,-0.0227,-0.0123,-0.0067,0.0024,0.0142,0.0133,0.0279,0.0283,0.036,0.0362,0.0364,0.0365,0.0362,0.0362,0.0362,0.0361,0.0361,0,-0.0528,-0.0541,-0.0537,-0.0549,-0.0558,-0.0518,-0.0505,-0.046,-0.0395,-0.0351,-0.0261,-0.02,-0.006,0.0046,0.0138,0.0282,0.0281,0.0365,0.0391,0.0352,0.035,0.0334,0.033,0.0365,0.0364,0.0363,0.0363,0,-0.0576,-0.0578,-0.06,-0.0592,-0.0588,-0.0595,-0.0557,-0.0539,-0.0475,-0.0414,-0.0392,-0.0251,-0.0106,0.0036,0.0198,0.0282,0.0406,0.045,0.0392,0.041,0.0458,0.0451,0.0546,0.0547,0.0549,0.055,0.0551,0,-0.0602,-0.0625,-0.0639,-0.0653,-0.065,-0.0651,-0.0644,-0.0589,-0.0559,-0.0434,-0.0403,-0.0256,-0.0127,0.0122,0.0286,0.0459,0.0452,0.0517,0.0498,0.0464,0.0479,0.047,0.0462,0.0487,0.0487,0.0487,0.0488,0,-0.0642,-0.065,-0.0667,-0.0698,-0.0711,-0.0715,-0.0698,-0.0686,-0.0598,-0.0531,-0.04,-0.0292,-0.0045,0.0158,0.0373,0.046,0.0488,0.0529,0.0525,0.0443,0.0415,0.0427,0.042,0.049,0.049,0.049,0.049,0.0489,-0.0663,-0.0687,-0.0709,-0.0731,-0.0751,-0.0758,-0.0752,-0.0711,-0.0652,-0.0518,-0.0405,-0.0211,-0.0026,0.0296,0.0431,0.0545,0.0548,0.0568,0.0565,0.0561,0.0538,0.0514,0.0602,0.0603,0.0603,0.0603,0.0603,0,-0.0679,-0.0703,-0.0732,-0.0764,-0.0783,-0.0781,-0.0764,-0.0731,-0.0651,-0.0511,-0.0362,-0.013,0.0105,0.0284,0.0478,0.0595,0.0566,0.0595,0.0537,0.0534,0.0531,0.0503,0.0561,0.0561,0.0561,0.0561,0,0,-0.0691,-0.0719,-0.0732,-0.0768,-0.079,-0.0799,-0.0785,-0.0723,-0.0619,-0.0476,-0.0322,-0.0096,0.0128,0.0263,0.0395,0.0484,0.047,0.0478,0.0499,0.0409,0.0405,0.0502,0.0455,0,0,0,0,0]}],[{"header":{"parameterUnit":"m.s-1","parameterCategory":2,"la1":30.2991,"la2":30.254,"lo1":-89.0895,"lo2":-89.0444,"dy":0.0017,"dx":0.0017,"nx":28,"ny":28,"refTime":"2023-10-27T21:00:00:Z","depth":"4","parameterNumber":2,"parameterNumberName":"U-component_of_CURRENTS"},"data":[0,0,0,0,0,0,0,0,0,0,0,0,0,0,0,0,0,0,0,0,0,0,0,0,0,0,0,0,0,0,0,0,0,0,0,0,0,0,0,0,0,0,0,0,0,0,0,0,0,0,0,0,0,0,0,0,0,0,-0.1171,-0.1171,0,-0.1139,-0.1138,-0.1137,-0.1145,-0.1146,-0.1147,-0.1148,-0.1133,-0.1131,-0.113,0,0,0,0,0,0,0,0,0,0,0,0,0,-0.1132,-0.1133,-0.1171,-0.1171,-0.1172,-0.1139,-0.1138,-0.1137,-0.1145,-0.1146,-0.1148,-0.1149,-0.1133,-0.1132,-0.113,0,0,0,0,0,0,0,0,0,0,0,0,0,-0.1123,-0.1133,-0.1171,-0.1176,-0.1177,-0.1139,-0.1138,-0.1137,-0.1144,-0.1146,-0.1148,-0.115,-0.1134,-0.1132,-0.1129,-0.1079,0,0,-0.1122,-0.1121,0,0,0,0,0,0,0,0,-0.1124,-0.1124,-0.1175,-0.1176,-0.1177,-0.1153,-0.1119,-0.112,-0.1144,-0.115,-0.1148,-0.1151,-0.1144,-0.1141,-0.1122,-0.1078,-0.1077,-0.1122,-0.1121,-0.112,-0.1119,0,0,0,0,0,0,0,-0.1125,-0.1125,-0.1152,-0.1176,-0.1176,-0.1144,-0.1145,-0.1118,-0.1133,-0.115,-0.1152,-0.1158,-0.1144,-0.1124,-0.1121,-0.1077,-0.1122,-0.112,-0.1119,-0.1118,-0.1105,-0.1106,0,0,0,0,0,0,-0.1145,-0.1126,-0.1153,-0.1152,-0.1161,-0.1144,-0.1144,-0.1154,-0.1133,-0.1133,-0.1156,-0.1158,-0.1127,-0.1124,-0.1121,-0.1171,-0.112,-0.1118,-0.1116,-0.1104,-0.1105,-0.1107,0,0,0,0,0,0,-0.1144,-0.1148,-0.1155,-0.1143,-0.1142,-0.1144,-0.1153,-0.1152,-0.1164,-0.1139,-0.1138,-0.1174,-0.1128,-0.1124,-0.1131,-0.1166,-0.1117,-0.1114,-0.1103,-0.1105,-0.1106,-0.1199,0,0,0,0,0,0,-0.1143,-0.1148,-0.1163,-0.1144,-0.1144,-0.1167,-0.1152,-0.1151,-0.1166,-0.1169,-0.1153,-0.1151,-0.1129,-0.1135,-0.1129,-0.1162,-0.1113,-0.1102,-0.1104,-0.1106,-0.1195,-0.1204,-0.1211,0,0,0,0,0,-0.1142,-0.116,-0.1164,-0.1168,-0.1165,-0.1168,-0.1165,-0.1166,-0.1166,-0.118,-0.1169,-0.1153,-0.1144,-0.1133,-0.1126,-0.116,-0.1101,-0.1103,-0.1105,-0.1191,-0.1202,-0.1211,0,0,0,0,0,0,-0.1146,-0.1163,-0.1167,-0.1188,-0.1195,-0.1173,-0.1186,-0.118,-0.1177,-0.1185,-0.1157,-0.1155,-0.1176,-0.1149,-0.1139,-0.1162,-0.1123,-0.1124,-0.119,-0.12,-0.1208,-0.122,-0.1111,0,0,0,0,0,-0.1155,-0.1185,-0.1184,-0.1207,-0.1212,-0.12,-0.1202,-0.1204,-0.1198,-0.1199,-0.1191,-0.1179,-0.117,-0.1174,-0.1159,-0.1163,-0.1147,-0.1183,-0.1191,-0.1198,-0.1203,-0.1212,-0.1222,-0.1114,-0.1114,-0.1114,0,0,-0.1171,-0.118,-0.12,-0.1212,-0.1213,-0.1224,-0.1206,-0.1224,-0.1239,-0.1196,-0.1221,-0.1207,-0.1177,-0.1192,-0.1199,-0.1181,-0.1221,-0.1201,-0.1208,-0.1208,-0.1215,-0.1226,-0.1235,-0.1116,-0.1116,-0.1115,0,0,-0.1202,-0.1218,-0.1246,-0.1255,-0.127,-0.1259,-0.1274,-0.127,-0.128,-0.1296,-0.1271,-0.1278,-0.1269,-0.1254,-0.1244,-0.1284,-0.1263,-0.129,-0.1344,-0.1353,-0.1363,-0.137,-0.137,-0.1376,-0.1297,-0.1297,-0.1297,0,-0.1217,-0.1249,-0.1255,-0.1275,-0.1289,-0.1282,-0.1304,-0.1305,-0.1309,-0.1324,-0.1327,-0.1318,-0.1297,-0.1301,-0.1324,-0.1304,-0.1307,-0.1311,-0.1366,-0.1373,-0.1379,-0.1376,-0.1383,-0.1302,-0.1301,-0.1301,-0.13,0,-0.1257,-0.1289,-0.1307,-0.1334,-0.1345,-0.1369,-0.1371,-0.1392,-0.1405,-0.1409,-0.1437,-0.1408,-0.1406,-0.1405,-0.1379,-0.1412,-0.1399,-0.1375,-0.1344,-0.1396,-0.1389,-0.1394,-0.1309,-0.1307,-0.1305,-0.1304,0,0,-0.1274,-0.1327,-0.1337,-0.1358,-0.1381,-0.139,-0.1425,-0.1449,-0.1479,-0.1495,-0.1533,-0.1521,-0.1516,-0.1502,-0.1471,-0.148,-0.1527,-0.1461,-0.146,-0.1467,-0.1556,-0.1428,-0.142,-0.1527,-0.1528,-0.1529,-0.1536,0,-0.1304,-0.1354,-0.1374,-0.1425,-0.1443,-0.1459,-0.1491,-0.1515,-0.1539,-0.1575,-0.1565,-0.1583,-0.1549,-0.1555,-0.1564,-0.153,-0.1545,-0.1528,-0.1498,-0.1497,-0.1382,-0.1423,-0.1533,-0.1539,-0.154,-0.1541,-0.1542,0,-0.1322,-0.1358,-0.1409,-0.1467,-0.148,-0.151,-0.1559,-0.159,-0.1633,-0.1656,-0.1678,-0.1671,-0.1676,-0.1645,-0.1633,-0.1631,-0.161,-0.1585,-0.1584,-0.1433,-0.1377,-0.1473,-0.155,-0.155,-0.1549,-0.1548,-0.1548,0,-0.1299,-0.1376,-0.1419,-0.144,-0.1502,-0.1538,-0.1572,-0.1619,-0.1635,-0.1704,-0.1717,-0.1744,-0.1729,-0.1731,-0.1669,-0.1673,-0.165,-0.1642,-0.1505,-0.1496,-0.157,-0.1561,-0.1649,-0.1649,-0.1649,-0.1649,-0.1649,0,-0.1292,-0.1331,-0.1421,-0.1442,-0.1492,-0.1548,-0.1595,-0.1636,-0.1687,-0.1695,-0.1749,-0.1726,-0.1753,-0.1728,-0.1704,-0.1602,-0.1675,-0.1518,-0.149,-0.1608,-0.1604,-0.1573,-0.1564,-0.1649,-0.1649,-0.1649,-0.1649,0,-0.1228,-0.1299,-0.1345,-0.1442,-0.1472,-0.1501,-0.1567,-0.1593,-0.1664,-0.1672,-0.1689,-0.1715,-0.1679,-0.1676,-0.1657,-0.1601,-0.1549,-0.1496,-0.1619,-0.1596,-0.1391,-0.1387,-0.1371,-0.1367,-0.1363,-0.136,-0.1357,0,-0.1188,-0.1211,-0.1314,-0.1337,-0.1379,-0.1438,-0.1464,-0.1553,-0.1571,-0.1622,-0.1606,-0.1604,-0.1602,-0.1469,-0.1496,-0.1455,-0.1425,-0.1418,-0.1416,-0.1389,-0.1364,-0.1365,-0.1367,-0.1351,-0.135,-0.1349,-0.1348,0,-0.1098,-0.1148,-0.1184,-0.1233,-0.1273,-0.1306,-0.1363,-0.1359,-0.145,-0.1528,-0.1473,-0.1445,-0.1394,-0.137,-0.1338,-0.1307,-0.1444,-0.1379,-0.1387,-0.1385,-0.1364,-0.1343,-0.1349,-0.1335,-0.1337,-0.1338,-0.1339,0,-0.1014,-0.1012,-0.1068,-0.1095,-0.1145,-0.1153,-0.1203,-0.1222,-0.1247,-0.1338,-0.1306,-0.1309,-0.1359,-0.1287,-0.1255,-0.122,-0.1208,-0.1195,-0.1212,-0.1227,-0.1174,-0.1127,-0.1003,0,0,0,0,0,-0.092,-0.0907,-0.0925,-0.095,-0.1001,-0.1028,-0.1118,-0.118,-0.1276,-0.1201,-0.1256,-0.1205,-0.1149,-0.1153,-0.1083,-0.1187,-0.1214,-0.1104,-0.1208,-0.1262,-0.1277,-0.1227,0,0,0,0,0,0,-0.0853,-0.0863,-0.0873,-0.0822,-0.0816,-0.0851,-0.0902,-0.098,-0.0961,-0.1067,-0.1034,-0.1126,-0.108,-0.1145,-0.1045,-0.1052,-0.1096,-0.1129,-0.1126,-0.1254,-0.1267,-0.128,-0.1233,0,0,0,0,0]},{"header":{"parameterUnit":"m.s-1","parameterCategory":2,"la1":30.2991,"la2":30.254,"lo1":-89.0895,"lo2":-89.0444,"dy":0.0017,"dx":0.0017,"nx":28,"ny":28,"refTime":"2023-10-27T21:00:00:Z","depth":"4","parameterNumber":3,"parameterNumberName":"V-component_of_CURRENTS"},"data":[0,0,0,0,0,0,0,0,0,0,0,0,0,0,0,0,0,0,0,0,0,0,0,0,0,0,0,0,0,0,0,0,0,0,0,0,0,0,0,0,0,0,0,0,0,0,0,0,0,0,0,0,0,0,0,0,0,0,-0.0096,-0.0096,0,-0.0075,-0.0075,-0.0075,-0.0075,-0.0075,-0.0075,-0.0075,-0.0054,-0.0053,-0.0052,0,0,0,0,0,0,0,0,0,0,0,0,0,-0.011,-0.011,-0.0096,-0.0096,-0.0096,-0.0075,-0.0075,-0.0075,-0.0075,-0.0075,-0.0075,-0.0075,-0.0054,-0.0053,-0.0052,0,0,0,0,0,0,0,0,0,0,0,0,0,-0.01,-0.011,-0.0097,-0.0092,-0.0091,-0.0075,-0.0075,-0.0075,-0.0075,-0.0075,-0.0075,-0.0075,-0.0054,-0.0053,-0.0052,-0.0043,0,0,-0.0049,-0.0049,0,0,0,0,0,0,0,0,-0.01,-0.01,-0.0093,-0.0092,-0.0091,-0.0076,-0.0072,-0.0063,-0.0075,-0.0083,-0.0075,-0.0075,-0.006,-0.0058,-0.0057,-0.0042,-0.0041,-0.0049,-0.0048,-0.0048,-0.0048,0,0,0,0,0,0,0,-0.0101,-0.01,-0.009,-0.0092,-0.0091,-0.0081,-0.008,-0.007,-0.0072,-0.0082,-0.0082,-0.0076,-0.006,-0.0058,-0.0056,-0.004,-0.0049,-0.0048,-0.0048,-0.0047,-0.0012,-0.0012,0,0,0,0,0,0,-0.0101,-0.0101,-0.0091,-0.0089,-0.0094,-0.0081,-0.008,-0.0082,-0.0072,-0.007,-0.0076,-0.0076,-0.0059,-0.0057,-0.0055,-0.0046,-0.0048,-0.0047,-0.0046,-0.0013,-0.0012,-0.0012,0,0,0,0,0,0,-0.0102,-0.0101,-0.0091,-0.0092,-0.009,-0.008,-0.0083,-0.0082,-0.0082,-0.0067,-0.0066,-0.0077,-0.0059,-0.0057,-0.0043,-0.0045,-0.0047,-0.0046,-0.0013,-0.0013,-0.0012,-0.0025,0,0,0,0,0,0,-0.0102,-0.0101,-0.0104,-0.0093,-0.009,-0.0083,-0.0083,-0.0081,-0.0077,-0.0077,-0.0068,-0.0066,-0.0059,-0.0045,-0.0042,-0.0043,-0.0045,-0.0014,-0.0013,-0.0012,-0.0025,-0.0025,-0.0025,0,0,0,0,0,-0.0103,-0.0109,-0.0104,-0.0103,-0.0094,-0.0083,-0.0081,-0.0075,-0.0077,-0.0076,-0.0067,-0.0066,-0.004,-0.0044,-0.0041,-0.0042,-0.0014,-0.0013,-0.0012,-0.0025,-0.0025,-0.0025,0,0,0,0,0,0,-0.0116,-0.0109,-0.0104,-0.0107,-0.0095,-0.0082,-0.0083,-0.0076,-0.0069,-0.0073,-0.006,-0.0057,-0.005,-0.004,-0.0045,-0.0029,-0.0027,-0.0026,-0.0038,-0.0037,-0.0037,-0.0036,-0.0044,0,0,0,0,0,-0.0118,-0.0124,-0.0108,-0.0111,-0.0106,-0.0094,-0.009,-0.0086,-0.0076,-0.0074,-0.0062,-0.0052,-0.0044,-0.0036,-0.0028,-0.0016,0.0008,-0.0014,-0.0014,-0.0014,-0.001,0.0032,0.0036,-0.001,-0.001,-0.001,0,0,-0.0124,-0.0121,-0.0124,-0.0114,-0.0108,-0.0106,-0.0093,-0.009,-0.0086,-0.0072,-0.0064,-0.0054,-0.0041,-0.0031,-0.0026,-0.0023,0.0011,-0.0013,-0.0014,-0.0009,0.0033,0.0038,0.0042,-0.0009,-0.0009,-0.0009,0,0,-0.0142,-0.0135,-0.0147,-0.0138,-0.0127,-0.0117,-0.0116,-0.0101,-0.0092,-0.0082,-0.0071,-0.0054,-0.0044,-0.0027,-0.0021,-0.0013,0.0006,-0.0016,-0.001,0.003,0.0034,0.0038,0.0072,0.0079,-0.0011,-0.0011,-0.0011,0,-0.0148,-0.0161,-0.0146,-0.0151,-0.0146,-0.0124,-0.013,-0.0115,-0.0096,-0.0083,-0.0083,-0.005,-0.0041,-0.0017,-0.0018,-0.0013,0.0011,-0.0014,0.003,0.0035,0.0039,0.0073,0.0081,-0.0012,-0.0012,-0.0012,-0.0012,0,-0.0174,-0.018,-0.0185,-0.0186,-0.0176,-0.0178,-0.0153,-0.0138,-0.0126,-0.0107,-0.0079,-0.0055,-0.0033,-0.0028,-0.0024,0.0011,0.0018,0.0021,0.003,0.0043,0.0078,0.0086,-0.0013,-0.0012,-0.0012,-0.0012,0,0,-0.0202,-0.0204,-0.0207,-0.0213,-0.0196,-0.0193,-0.0177,-0.0153,-0.0141,-0.011,-0.0086,-0.0062,-0.004,-0.0029,-0.001,0.0028,0.0074,0.0036,0.0038,0.0068,0.0162,0.0139,0.0146,0.0085,0.0087,0.0088,0.0173,0,-0.0228,-0.0255,-0.024,-0.0255,-0.0265,-0.023,-0.0216,-0.0188,-0.0158,-0.0126,-0.0079,-0.0059,-0.0042,-0.0034,0.001,0.0056,0.0096,0.005,0.0146,0.0149,0.0126,0.0155,0.0092,0.018,0.0182,0.0183,0.0184,0,-0.0261,-0.0276,-0.0301,-0.0294,-0.0293,-0.0294,-0.0265,-0.0247,-0.0187,-0.0162,-0.0113,-0.0077,-0.0016,-0.0009,0.0097,0.0067,0.0113,0.0153,0.0157,0.0146,0.0142,0.0165,0.02,0.0199,0.0198,0.0197,0.0196,0,-0.0304,-0.0315,-0.034,-0.034,-0.0327,-0.0326,-0.0314,-0.0266,-0.0245,-0.0183,-0.0161,-0.0079,-0.0042,0.0038,0.0119,0.011,0.0236,0.0234,0.0262,0.026,0.026,0.0255,0.031,0.031,0.031,0.031,0.031,0,-0.0339,-0.0358,-0.0368,-0.0383,-0.0402,-0.0374,-0.0373,-0.0342,-0.0293,-0.0263,-0.0188,-0.0143,-0.0029,0.0056,0.0129,0.0224,0.0247,0.0272,0.0285,0.0252,0.0245,0.0267,0.026,0.0313,0.0312,0.0312,0.0311,0,-0.0375,-0.0384,-0.0415,-0.0422,-0.0426,-0.0441,-0.0424,-0.0415,-0.0363,-0.0319,-0.0301,-0.0186,-0.0073,0.0041,0.0175,0.0227,0.0321,0.0345,0.0304,0.0312,0.0317,0.0309,0.0392,0.0392,0.0392,0.0392,0.0392,0,-0.0394,-0.0418,-0.0453,-0.0476,-0.0483,-0.0498,-0.0503,-0.0461,-0.0439,-0.034,-0.0316,-0.0202,-0.0118,0.0068,0.0176,0.0324,0.0333,0.038,0.035,0.0323,0.0328,0.032,0.0313,0.0392,0.0392,0.0392,0.0392,0,-0.0427,-0.0445,-0.0469,-0.0519,-0.0545,-0.0561,-0.0559,-0.0546,-0.0477,-0.0435,-0.0317,-0.0206,-0.0077,0.0066,0.0178,0.0279,0.0351,0.038,0.038,0.0353,0.0324,0.0327,0.032,0.0392,0.0392,0.0392,0.0392,0,-0.045,-0.0478,-0.0515,-0.0549,-0.0589,-0.0604,-0.06,-0.0554,-0.052,-0.0399,-0.0362,-0.0208,-0.011,0.0043,0.0149,0.0245,0.0262,0.0283,0.0289,0.029,0.0227,0.0173,0.0216,0,0,0,0,0,-0.0466,-0.0496,-0.0537,-0.0581,-0.0618,-0.0631,-0.0622,-0.0602,-0.0536,-0.0458,-0.0403,-0.0278,-0.0094,-0.0007,0.0086,0.0125,0.0259,0.0233,0.028,0.0392,0.0392,0.0331,0,0,0,0,0,0,-0.0482,-0.0525,-0.0539,-0.059,-0.062,-0.0653,-0.0646,-0.0605,-0.0545,-0.0464,-0.0363,-0.0277,-0.0102,-0.0152,0.008,0.0112,0.015,0.0329,0.0331,0.0392,0.0392,0.0392,0.033,0,0,0,0,0]}]]